DW9421 Silver Spring MD US current weather conditions

sailwx.info

Wind from 259

Air temperature 18.9° C
Dewpoint 14.6° C

Last reported at 2020-Oct-01 15:01 UTC.
Time now 2020-Oct-01 16:10 UTC

Location: N 39°00' W 077°02'.
View on Google Maps.

See reports from other nearby stations

  
Tides and Currents Weather Stations Pressure Air Temp Water Temp Dewpoint Dewpoint Depression Visibility Wind Speed Wind Dir Waves Ship Positions
date/time (UTC)wind fromknots sea level pressurealtimeterstation pressurevisibilityair tempwater tempwave heightnotes
2020-Oct-01 15:01 259 18.9
2020-Oct-01 14:46 294 18.9
2020-Oct-01 14:32 294 18.3
2020-Oct-01 14:16 294 18.3
2020-Oct-01 14:01 294 17.8
2020-Oct-01 13:46 294 17.2
2020-Oct-01 13:31 296 16.1
2020-Oct-01 13:16 313 14.4
2020-Oct-01 13:01 259 13.9
2020-Oct-01 12:46 254 13.3
2020-Oct-01 12:31 165 12.8
2020-Oct-01 12:16 165 12.8
2020-Oct-01 12:01 165 12.2
2020-Oct-01 11:46 165 12.2
2020-Oct-01 11:30 165 12.2
2020-Oct-01 11:15 165 12.2
2020-Oct-01 11:01 165 11.7
2020-Oct-01 10:45 165 12.2
2020-Oct-01 10:30 165 12.2
2020-Oct-01 10:15 165 12.2
2020-Oct-01 10:00 165 12.2
2020-Oct-01 09:45 165 12.2
2020-Oct-01 09:30 165 12.8
2020-Oct-01 09:15 165 12.8
2020-Oct-01 09:00 165 12.8
2020-Oct-01 08:45 165 12.8
2020-Oct-01 08:30 165 13.3
2020-Oct-01 08:15 165 13.3
2020-Oct-01 08:00 165 13.3
2020-Oct-01 07:45 165 13.3
2020-Oct-01 07:30 165 13.3
2020-Oct-01 07:15 165 13.3
2020-Oct-01 07:00 165 13.3
2020-Oct-01 06:45 165 13.3
2020-Oct-01 06:30 165 13.3
2020-Oct-01 06:15 165 13.3
2020-Oct-01 06:00 165 13.3
2020-Oct-01 05:47 165 13.3
2020-Oct-01 05:32 165 13.3
2020-Oct-01 05:17 165 13.3
2020-Oct-01 05:01 165 13.9
2020-Oct-01 04:47 165 13.9
2020-Oct-01 04:31 165 13.9
2020-Oct-01 04:17 169 13.9
2020-Oct-01 04:01 169 14.4
2020-Oct-01 03:46 169 14.4
2020-Oct-01 03:32 169 15.0
2020-Oct-01 03:16 169 15.0
2020-Oct-01 03:01 169 15.6
2020-Oct-01 02:46 177 15.6
2020-Oct-01 02:31 162 15.6
2020-Oct-01 02:15 214 15.6
2020-Oct-01 02:01 219 16.1
2020-Oct-01 01:46 186 16.1
2020-Oct-01 01:31 132 16.1
2020-Oct-01 01:16 167 16.1
2020-Oct-01 01:02 147 15.6
2020-Oct-01 00:46 169 15.6
2020-Oct-01 00:31 169 16.1
2020-Oct-01 00:17 169 16.1
2020-Oct-01 00:01 146 16.1
2020-Sep-30 23:45 146 16.1
2020-Sep-30 23:31 146 16.7
2020-Sep-30 23:15 130 16.7
2020-Sep-30 23:01 130 17.2
2020-Sep-30 22:46 130 17.8
2020-Sep-30 22:31 130 18.3
2020-Sep-30 22:16 178 18.3
2020-Sep-30 22:00 178 18.9
2020-Sep-30 21:45 180 0 gusting 2 18.9
2020-Sep-30 21:30 187 18.9
2020-Sep-30 21:16 131 18.9
2020-Sep-30 21:00 176 19.4
2020-Sep-30 20:45 187 19.4
2020-Sep-30 20:31 148 0 gusting 3 19.4
2020-Sep-30 20:16 186 20.0
2020-Sep-30 20:01 189 20.6
2020-Sep-30 19:45 168 0 gusting 5 21.1
2020-Sep-30 19:30 167 0 gusting 5 21.1
2020-Sep-30 19:16 174 1 gusting 6 20.6
2020-Sep-30 19:01 155 0 gusting 3 20.6
2020-Sep-30 18:46 267 20.6
2020-Sep-30 18:30 198 0 gusting 5 21.1
2020-Sep-30 18:16 209 0 gusting 8 21.7
2020-Sep-30 18:00 249 21.7
2020-Sep-30 17:45 196 21.7
2020-Sep-30 17:30 169 0 gusting 5 21.1
2020-Sep-30 17:15 225 0 gusting 6 20.6
2020-Sep-30 17:00 204 0 gusting 3 20.6
2020-Sep-30 16:45 150 20.0
2020-Sep-30 16:30 280 0 gusting 9 20.0
2020-Sep-30 16:15 196 0 gusting 4 19.4
2020-Sep-30 16:00 084 19.4
2020-Sep-30 15:45 329 0 gusting 4 18.9
2020-Sep-30 15:32 088 0 gusting 3 18.9
2020-Sep-30 15:16 292 0 gusting 5 18.9
2020-Sep-30 15:04 194 18.3
2020-Sep-30 14:46 319 17.8
2020-Sep-30 14:31 286 0 gusting 2 17.2
2020-Sep-30 14:16 054 16.7
2020-Sep-30 14:01 254 16.1
2020-Sep-30 13:46 147 15.6
2020-Sep-30 13:34 295 15.0
2020-Sep-30 13:16 138 14.4
2020-Sep-30 13:01 138 13.9
2020-Sep-30 12:45 138 13.9
2020-Sep-30 12:30 138 13.3
2020-Sep-30 12:15 138 12.2
2020-Sep-30 12:01 138 11.7
2020-Sep-30 11:45 138 11.7
2020-Sep-30 11:30 138 11.7
2020-Sep-30 11:15 138 11.7
2020-Sep-30 11:00 138 12.2
2020-Sep-30 10:46 138 12.2
2020-Sep-30 10:30 138 12.2
2020-Sep-30 10:15 138 12.2
2020-Sep-30 10:00 138 12.2
2020-Sep-30 09:45 138 12.2
2020-Sep-30 09:31 138 12.2
2020-Sep-30 09:17 138 12.2
2020-Sep-30 09:02 138 12.2
2020-Sep-30 08:46 138 12.2
2020-Sep-30 08:31 246 12.2
2020-Sep-30 08:16 248 12.2
2020-Sep-30 08:02 148 12.2
2020-Sep-30 07:47 283 0 gusting 3 12.8
2020-Sep-30 07:31 015 12.8
2020-Sep-30 07:17 059 0 gusting 5 12.8
2020-Sep-30 07:01 119 12.8
2020-Sep-30 06:46 159 12.8
2020-Sep-30 06:32 159 12.8
2020-Sep-30 06:16 159 12.8
2020-Sep-30 06:01 046 12.8
2020-Sep-30 05:48 005 12.8
2020-Sep-30 05:31 242 12.8
2020-Sep-30 05:16 345 12.8
2020-Sep-30 05:01 306 12.8
2020-Sep-30 04:46 311 0 gusting 2 12.8
2020-Sep-30 04:31 011 12.8
2020-Sep-30 04:16 136 12.8
2020-Sep-30 04:01 133 12.8
2020-Sep-30 03:46 029 12.8
2020-Sep-30 03:30 232 0 gusting 4 12.8
2020-Sep-30 03:16 236 12.8
2020-Sep-30 03:00 033 12.8
2020-Sep-30 02:45 330 0 gusting 5 13.3
2020-Sep-30 02:30 040 13.9
2020-Sep-30 02:16 248 0 gusting 4 13.9
2020-Sep-30 02:01 219 1 gusting 6 13.9
2020-Sep-30 01:45 307 0 gusting 3 14.4
2020-Sep-30 01:30 255 0 gusting 6 14.4
2020-Sep-30 01:15 235 15.0
2020-Sep-30 01:00 172 15.6
2020-Sep-30 00:45 339 0 gusting 4 15.6
2020-Sep-30 00:30 279 16.1
2020-Sep-30 00:15 017 1 gusting 6 16.7
2020-Sep-30 00:03 292 1 gusting 4 17.2
2020-Sep-29 23:47 148 17.2
2020-Sep-29 23:32 348 0 gusting 4 17.8
2020-Sep-29 23:16 232 18.9
2020-Sep-29 23:01 261 0 gusting 3 18.9
2020-Sep-29 22:46 296 18.9
2020-Sep-29 22:31 303 19.4
2020-Sep-29 22:16 333 19.4
2020-Sep-29 22:01 268 0 gusting 5 20.0
2020-Sep-29 21:46 075 20.0
2020-Sep-29 21:31 271 20.6
2020-Sep-29 21:16 198 21.1
2020-Sep-29 21:01 346 0 gusting 3 21.7
2020-Sep-29 20:46 284 22.2
2020-Sep-29 20:31 296 23.3
2020-Sep-29 20:16 261 23.9
2020-Sep-29 20:01 171 24.4
2020-Sep-29 19:47 254 25.0
2020-Sep-29 19:31 269 25.6
2020-Sep-29 19:15 171 25.6
2020-Sep-29 19:01 138 26.1
2020-Sep-29 18:45 151 1 gusting 7 26.1
2020-Sep-29 18:31 150 0 gusting 2 26.7
2020-Sep-29 18:16 144 0 gusting 6 26.7
2020-Sep-29 18:00 168 0 gusting 3 26.7
2020-Sep-29 17:45 159 26.7
2020-Sep-29 17:30 146 0 gusting 5 26.7
2020-Sep-29 17:15 190 0 gusting 6 25.6
2020-Sep-29 17:00 128 25.0
2020-Sep-29 16:45 136 24.4
2020-Sep-29 16:30 145 0 gusting 3 23.9
2020-Sep-29 16:15 177 23.9
2020-Sep-29 16:04 157 23.3